This is the latest recevied weather packets stored in our database for station/object SQ5LTL-2. If no packets are shown the sender has not sent any weather packets the latest 10 day(s).
| Time | Temp. | Humidity | Pressure | Rain* | Wind** | Luminosity | Snow |
|---|---|---|---|---|---|---|---|
| 1777447531 | 5° C | 53% | 1027.5 hPa | 0 mm | - | 437 W/m² | - |
| 1777447230 | 5.56° C | 53% | 1027.6 hPa | 0 mm | - | 390 W/m² | - |
| 1777446927 | 5.56° C | 53% | 1027.6 hPa | 0 mm | - | 361 W/m² | - |
| 1777446625 | 5° C | 55% | 1027.4 hPa | 0 mm | - | 387 W/m² | - |
| 1777446324 | 5° C | 56% | 1027.4 hPa | 0 mm | - | 375 W/m² | - |
| 1777446022 | 5° C | 57% | 1027.4 hPa | 0 mm | - | 366 W/m² | - |
| 1777445722 | 5° C | 56% | 1027.4 hPa | 0 mm | - | 351 W/m² | - |
| 1777445420 | 5° C | 56% | 1027.3 hPa | 0 mm | - | 334 W/m² | - |
| 1777444818 | 4.44° C | 58% | 1027.3 hPa | 0 mm | - | 308 W/m² | - |
| 1777444535 | 4.44° C | 60% | 1027.3 hPa | 0 mm | - | 296 W/m² | - |
| 1777444234 | 4.44° C | 60% | 1027.2 hPa | 0 mm | - | 284 W/m² | - |
| 1777443934 | 3.89° C | 63% | 1027.3 hPa | 0 mm | - | 272 W/m² | - |
| 1777443631 | 3.89° C | 62% | 1027.3 hPa | 0 mm | - | 260 W/m² | - |
| 1777443331 | 3.89° C | 64% | 1027.2 hPa | 0 mm | - | 247 W/m² | - |
| 1777443029 | 3.33° C | 65% | 1027.2 hPa | 0 mm | - | 236 W/m² | - |
| 1777442727 | 3.33° C | 65% | 1027.2 hPa | 0 mm | - | 224 W/m² | - |
| 1777442425 | 3.33° C | 66% | 1027.2 hPa | 0 mm | - | 212 W/m² | - |
| 1777442124 | 3.33° C | 66% | 1027.1 hPa | 0 mm | - | 201 W/m² | - |
| 1777441823 | 2.78° C | 67% | 1027.1 hPa | 0 mm | - | 189 W/m² | - |
| 1777441521 | 2.78° C | 67% | 1027.1 hPa | 0 mm | - | 178 W/m² | - |
| 1777441221 | 2.78° C | 67% | 1027 hPa | 0 mm | - | 165 W/m² | - |
| 1777440918 | 2.78° C | 67% | 1027.1 hPa | 0 mm | - | 155 W/m² | - |
| 1777440616 | 2.22° C | 68% | 1027 hPa | 0 mm | - | 146 W/m² | - |
| 1777440335 | 2.22° C | 68% | 1026.8 hPa | 0 mm | - | 137 W/m² | - |
| 1777440033 | 2.22° C | 68% | 1026.9 hPa | 0 mm | - | 129 W/m² | - |
* Rain latest hour (hover to see other rain measurements)
** Current wind speed in m/s (hover to see current wind gust speed)